Regional Weather Roundup
Issued by NWS

Home | Current Version | Previous Version | Graphics & Text | Print | Product List | Glossary On
Versions: 1 2 3 4 5 6 7 8 9 10 11 12 13 14 15 16 17 18 19 20 21 22 23 24 25 26 27 28 29 30 31 32 33 34 35 36 37 38 39 40 41 42 43 44 45 46 47 48 49 50
000
ASUS45 KBOI 041410
RWRID

IDAHO REGIONAL WEATHER ROUNDUP
NATIONAL WEATHER SERVICE BOISE ID
800 AM MDT SAT JUL 04 2015

NOTE: "FAIR" INDICATES FEW OR NO CLOUDS BELOW 12000 FEET
WITH NO SIGNIFICANT WEATHER AND/OR OBSTRUCTIONS TO VISIBILITY

IDZ012-014-041500-
SOUTHWEST IDAHO


CITY           SKY/WX    TMP DP  RH WIND       PRES   REMARKS
BOISE          MOSUNNY   76  40  27 CALM      29.86R
CALDWELL       MOSUNNY   72  48  43 CALM      29.86S
MOUNTAIN HOME  MOSUNNY   78  41  26 W8        29.86R
$$

IDZ016-017-041500-
SOUTHCENTRAL IDAHO


CITY           SKY/WX    TMP DP  RH WIND       PRES   REMARKS
BURLEY         PTSUNNY   71  54  54 CALM      29.94R
JEROME         PTSUNNY   76  49  38 SW5       29.94S
TWIN FALLS     PTSUNNY   83  46  27 SW10      29.92S
$$

IDZ019>023-041500-
SOUTHEAST IDAHO


CITY           SKY/WX    TMP DP  RH WIND       PRES   REMARKS
IDAHO FALLS    SUNNY     63  52  67 CALM      29.99R
POCATELLO      SUNNY     74  48  39 SW10      29.98R
REXBURG        SUNNY     62  52  69 NE3       30.00S
$$

IDZ006-010-011-018-031-032-041500-
CENTRAL IDAHO MOUNTAINS


CITY           SKY/WX    TMP DP  RH WIND       PRES   REMARKS
MCCALL         MOSUNNY   59  45  59 CALM      30.02R
HAILEY         MOSUNNY   63  37  39 NW9G23    30.05S
STANLEY          N/A     51  34  52 E3        30.17S
SALMON         MOSUNNY   57  46  67 CALM      30.00S
CHALLIS        SUNNY     64  40  41 NE3       30.05S
$$

IDZ002-004-006-007-026-041500-
NORTHERN IDAHO


CITY           SKY/WX    TMP DP  RH WIND       PRES   REMARKS
LEWISTON       MOSUNNY   74  51  44 E7        29.82R
LOWELL           N/A     62  53  72 CALM      29.90R
COEUR D`ALENE  SUNNY     72  54  53 S10       29.83R
MULLAN PASS    SUNNY     68  33  27 CALM      30.06S
$$


USA.gov is the U.S. government's official web portal to all federal, state and local government web resources and services.